Regional Weather Roundup
Issued by NWS

Home | Current Version | Previous Version | Graphics & Text | Print | Product List | Glossary On
Versions: 1 2 3 4 5 6 7 8 9 10 11 12 13 14 15 16 17 18 19 20 21 22 23 24 25 26 27 28 29 30 31 32 33 34 35 36 37 38 39 40 41 42 43 44 45 46 47 48 49 50
515
ASUS43 KFSD 140102
RWRSD

WEATHER ROUNDUP FOR SOUTH DAKOTA
NATIONAL WEATHER SERVICE SIOUX FALLS SD
700 PM CST SAT FEB 13 2016

NOTE: "FAIR" INDICATES FEW OR NO CLOUDS BELOW 12,000 FEET WITH NO
SIGNIFICANT WEATHER AND/OR OBSTRUCTIONS TO VISIBILITY.


SDZ001>005-009-010-012>017-140200-
NORTHWEST AND NORTH CENTRAL SOUTH DAKOTA

CITY           SKY/WX    TMP DP  RH WIND       PRES   REMARKS
BUFFALO          N/A     35  33  92 W14       29.76S WCI  26
FAITH            N/A     29  26  89 E7        29.83S WCI  22
MOBRIDGE       CLOUDY    21  16  81 SE12      29.92R WCI   9
$$

SDZ012>016-024>037-041>051-057-063-072>074-140200-
SOUTHWEST AND SOUTH CENTRAL SOUTH DAKOTA

CITY           SKY/WX    TMP DP  RH WIND       PRES   REMARKS
RAPID CTY ARPT LGT RAIN  34  32  92 N29G37    29.85R FOG     WCI  20
PIERRE         CLOUDY    26  22  84 SE25      29.84F WCI  11
CUSTER         CLOUDY    34  26  72 N24G39    29.78S WCI  21
ELLSWORTH AFB  RAIN      32  32 100 NW26G35   29.86  WCI  18
PHILIP         MOCLDY    35  28  75 VRB6G18   29.75R
PINE RIDGE     CLEAR     49  30  48 W25G33    29.73R
WINNER         CLOUDY    28  19  69 S22       29.87F WCI  14
$$

SDZ004>011-016>023-039-040-140200-
NORTHEAST SOUTH DAKOTA

CITY           SKY/WX    TMP DP  RH WIND       PRES   REMARKS
ABERDEEN       LGT SNOW  14   9  80 SE23      30.04F WCI  -5
WATERTOWN      CLOUDY    10   0  63 SE20      30.10F WCI  -9
BROOKINGS      LGT SNOW   9   3  77 S18G26    30.15S WCI -10
SISSETON         N/A     10   3  73 S24G30    30.16F WCI -10
$$

SDZ017-020-022-023-036>040-048>070-140200-
SOUTHEAST SOUTH DAKOTA

CITY           SKY/WX    TMP DP  RH WIND       PRES   REMARKS
SIOUX FALLS    FLURRIES  11   5  77 SE20G28   30.20F WCI  -7
HURON          LGT SNOW  13   8  81 SE26G33   30.05F WCI  -7
MITCHELL       LGT SNOW  14   8  77 SE28G37   30.12F WCI  -6
YANKTON        CLOUDY    14   7  73 SE18      30.20R WCI  -3
$$

ABBREVIATIONS USED IN REMARKS
   TC - TEMPERATURE IN CELSIUS
  WCI - WIND CHILL INDEX
   HX - HEAT INDEX
  VSB - VISIBILITY





USA.gov is the U.S. government's official web portal to all federal, state and local government web resources and services.